Location: Ferintosh
(52.7647°N, 112.9692°W)
Time: 12:36:22
(UTC+00:00)

S-56A Canister/Altair - Pass Details

Date: 29 May 2024
Orbit: 637 x 2489 km, 38.9° (Epoch: 22 June)

Event Time Altitude Azimuth Distance (km) Brightness Sun altitude
Rises 15:10:37 0° 263° (W) 5,886 11.5 32.4°
Reaches altitude 10° 15:15:12 10° 256° (WSW) 4,664 11.1 33.1°
Maximum altitude 15:25:45 34° 198° (SSW) 2,529 10.4 34.6°
Drops below altitude 10° 15:33:23 10° 137° (SE) 3,349 11.7 35.8°
Sets 15:36:07 0° 128° (SE) 4,078 12.0 36.2°
